GFSNW_700_temp_105.txt.gz
Temp
-4 -4 -4 -4 -5 -5 -6 -6 -9 -7 -8 -9 -9 -8 -9 -9 -9 -8 -9 -9 -8 -8 -7 -7 -7 -3 -1 -1 -1 -1 -1 -1 -2 -2 -0 0 1 1 1 2 2 2 3 3
-5 -5 -4 -5 -5 -5 -6 -7 -8 -8 -8 -9 -8 -9 -9 -8 -9 -9 -8 -8 -7 -7 -6 -7 -6 -4 -3 -2 -2 -1 -1 -1 -1 -2 -1 -1 -0 0 0 -0 -0 1 3 3
-5 -5 -5 -5 -6 -6 -7 -7 -8 -9 -9 -9 -9 -9 -8 -8 -8 -8 -8 -7 -7 -7 -7 -6 -6 -5 -5 -4 -4 -3 -2 -2 -1 0 1 -0 -0 -1 -1 -0 1 1 2 3
-5 -5 -6 -6 -6 -6 -7 -7 -8 -8 -10 -9 -9 -9 -8 -8 -7 -7 -8 -7 -8 -7 -7 -7 -7 -6 -5 -4 -3 -2 -3 -3 -2 -2 -1 -0 -1 -1 -1 -1 -0 0 1 1
-6 -6 -6 -6 -7 -7 -8 -8 -9 -9 -10 -9 -9 -8 -9 -9 -8 -8 -8 -8 -7 -7 -7 -8 -7 -7 -6 -5 -5 -3 -3 -2 -2 -1 -1 -1 -1 -1 -1 -1 -0 0 1 -1
-6 -6 -6 -7 -7 -8 -8 -8 -8 -9 -9 -9 -9 -9 -8 -8 -9 -8 -8 -8 -6 -6 -6 -6 -6 -6 -6 -6 -6 -5 -4 -3 -2 -2 -2 -1 -1 -1 -1 -1 -3 -3 -3 -3
-7 -7 -7 -7 -8 -8 -8 -8 -9 -10 -9 -9 -9 -9 -8 -8 -7 -7 -8 -7 -6 -6 -5 -5 -6 -5 -5 -5 -5 -5 -4 -4 -2 -2 -2 -1 -2 -2 -2 -3 -4 -4 -4 -4
-7 -7 -7 -7 -8 -8 -8 -9 -9 -10 -11 -10 -10 -9 -9 -8 -8 -8 -7 -6 -6 -5 -5 -5 -4 -4 -5 -4 -5 -5 -4 -3 -3 -1 -0 -2 -3 -4 -4 -3 -5 -4 -4 -4
-7 -7 -7 -8 -8 -8 -9 -9 -9 -9 -10 -9 -9 -9 -9 -9 -8 -8 -8 -6 -6 -6 -6 -5 -4 -4 -4 -3 -3 -4 -4 -4 -2 -2 -1 -2 -5 -5 -5 -4 -5 -5 -5 -4
-8 -8 -8 -8 -8 -8 -9 -9 -10 -10 -10 -10 -10 -10 -10 -10 -10 -9 -8 -6 -6 -6 -7 -5 -4 -4 -4 -3 -3 -4 -4 -4 -3 -3 -1 -5 -5 -4 -4 -4 -6 -7 -6 -5
-8 -8 -8 -8 -9 -9 -9 -10 -10 -10 -10 -9 -9 -9 -10 -10 -10 -10 -9 -8 -8 -6 -8 -7 -7 -6 -6 -5 -5 -5 -5 -5 -4 -3 -3 -4 -5 -5 -5 -7 -7 -7 -7 -6
-9 -9 -9 -9 -9 -9 -9 -10 -10 -10 -9 -9 -9 -9 -9 -9 -9 -10 -10 -10 -10 -9 -9 -8 -8 -7 -6 -6 -5 -6 -6 -7 -7 -7 -7 -7 -6 -7 -7 -7 -7 -7 -6 -6
-9 -9 -9 -9 -9 -9 -10 -11 -10 -10 -9 -10 -9 -9 -9 -9 -9 -9 -10 -10 -9 -9 -9 -9 -8 -7 -7 -7 -7 -7 -8 -7 -7 -7 -7 -8 -7 -7 -7 -7 -7 -7 -7 -7
-9 -9 -9 -9 -9 -10 -10 -10 -10 -10 -10 -10 -10 -9 -9 -9 -9 -9 -9 -9 -9 -9 -9 -9 -9 -8 -8 -8 -8 -7 -8 -7 -7 -8 -8 -8 -7 -7 -7 -7 -7 -7 -7 -7
-9 -9 -9 -9 -10 -10 -10 -10 -10 -10 -10 -10 -10 -9 -9 -9 -9 -9 -9 -9 -9 -10 -10 -9 -9 -8 -9 -8 -8 -8 -7 -8 -8 -7 -8 -8 -8 -8 -8 -8 -8 -8 -8 -7
-10 -10 -10 -10 -10 -10 -11 -10 -10 -10 -10 -10 -10 -9 -9 -9 -9 -9 -9 -9 -9 -10 -10 -9 -9 -9 -9 -8 -8 -7 -7 -8 -8 -8 -8 -8 -8 -8 -8 -8 -8 -8 -7 -7
-10 -10 -10 -10 -11 -11 -10 -10 -9 -9 -10 -10 -10 -9 -8 -9 -9 -9 -9 -9 -9 -10 -10 -10 -9 -9 -9 -9 -8 -7 -8 -7 -7 -8 -8 -8 -8 -8 -8 -8 -8 -7 -7 -7
-11 -10 -11 -11 -11 -10 -10 -10 -10 -9 -10 -10 -10 -9 -9 -9 -9 -9 -9 -9 -9 -10 -10 -9 -9 -9 -9 -9 -7 -7 -7 -7 -8 -8 -8 -8 -8 -8 -8 -8 -8 -7 -7 -7
-11 -11 -11 -11 -11 -10 -10 -10 -10 -10 -10 -10 -10 -9 -10 -9 -9 -9 -9 -10 -10 -10 -10 -10 -9 -9 -9 -9 -8 -7 -7 -7 -8 -8 -8 -8 -8 -8 -8 -8 -8 -8 -8 -8
-11 -11 -12 -11 -10 -10 -10 -10 -10 -10 -10 -10 -9 -9 -9 -9 -9 -10 -10 -10 -10 -10 -9 -10 -10 -9 -9 -9 -8 -8 -8 -8 -8 -8 -8 -8 -8 -8 -8 -8 -8 -8 -8 -8
-12 -12 -12 -11 -11 -11 -10 -10 -10 -10 -10 -9 -8 -9 -9 -9 -9 -9 -9 -10 -10 -10 -9 -10 -10 -9 -8 -8 -8 -7 -8 -8 -8 -8 -9 -9 -8 -8 -9 -9 -9 -9 -9 -9
-12 -12 -11 -11 -11 -10 -10 -10 -10 -10 -9 -9 -8 -8 -10 -9 -9 -10 -10 -10 -10 -10 -9 -10 -9 -9 -8 -8 -8 -8 -7 -8 -8 -8 -9 -9 -9 -9 -10 -10 -10 -10 -10 -11
-13 -12 -11 -10 -11 -10 -10 -10 -10 -10 -9 -8 -8 -8 -8 -9 -10 -9 -9 -9 -10 -9 -9 -9 -8 -7 -7 -7 -7 -7 -8 -8 -9 -9 -9 -9 -10 -10 -10 -10 -10 -11 -11 -11
-13 -11 -11 -11 -10 -9 -9 -9 -9 -9 -8 -8 -7 -8 -8 -9 -10 -9 -9 -9 -9 -9 -9 -8 -7 -7 -7 -7 -8 -8 -8 -9 -9 -9 -9 -10 -10 -10 -11 -11 -11 -12 -12 -13
-12 -11 -10 -10 -10 -9 -8 -8 -8 -8 -9 -8 -8 -8 -9 -10 -9 -9 -9 -9 -9 -9 -8 -7 -7 -7 -8 -8 -8 -8 -8 -9 -9 -9 -10 -10 -10 -11 -11 -12 -12 -13 -13 -14
-12 -11 -10 -9 -9 -8 -8 -8 -8 -8 -9 -9 -9 -10 -9 -9 -9 -9 -9 -9 -8 -7 -7 -7 -7 -7 -8 -8 -8 -8 -8 -9 -10 -10 -11 -11 -11 -12 -12 -12 -13 -14 -15 -15
-12 -10 -10 -9 -8 -8 -8 -8 -8 -8 -9 -9 -9 -9 -9 -9 -9 -9 -9 -8 -7 -6 -7 -7 -7 -8 -8 -8 -8 -9 -9 -10 -10 -11 -11 -11 -12 -12 -13 -14 -15 -16 -17 -17

GFSNW_700_temp_111.txt.gz
Temp
-5 -5 -4 -4 -4 -4 -5 -4 -5 -6 -6 -6 -7 -7 -7 -6 -6 -7 -7 -7 -7 -7 -7 -5 -6 -6 -5 -4 -4 -3 -3 -4 -3 -3 -2 -2 -1 -1 -1 -2 -2 -2 -2 -3
-5 -5 -5 -5 -5 -5 -5 -5 -6 -6 -7 -7 -8 -7 -7 -7 -7 -7 -7 -7 -7 -7 -6 -7 -6 -5 -4 -4 -3 -3 -3 -3 -3 -3 -3 -3 -2 -1 -1 -2 -2 -2 -2 -3
-5 -5 -5 -5 -5 -5 -6 -5 -6 -7 -7 -7 -7 -7 -7 -7 -7 -6 -7 -7 -7 -6 -6 -6 -6 -6 -4 -5 -3 -2 -2 -3 -3 -3 -3 -2 -2 -2 -2 -2 -3 -2 -3 -4
-6 -6 -6 -6 -6 -6 -6 -6 -7 -7 -8 -8 -7 -7 -8 -8 -7 -7 -7 -7 -6 -7 -6 -5 -6 -6 -4 -4 -3 -2 -2 -4 -3 -3 -3 -3 -2 -3 -2 -3 -2 -3 -5 -5
-6 -6 -6 -6 -6 -6 -6 -7 -6 -8 -8 -8 -7 -8 -8 -7 -7 -7 -7 -7 -6 -6 -6 -6 -6 -6 -5 -5 -4 -3 -4 -4 -4 -4 -4 -1 -3 -3 -2 -4 -4 -4 -5 -5
-6 -7 -7 -6 -6 -6 -6 -7 -7 -8 -8 -8 -8 -8 -8 -8 -7 -7 -7 -7 -6 -5 -5 -4 -5 -5 -5 -5 -4 -4 -4 -4 -4 -5 -4 -2 -4 -4 -4 -5 -6 -5 -5 -5
-7 -7 -7 -7 -7 -6 -7 -6 -7 -7 -8 -8 -7 -7 -8 -8 -7 -7 -7 -7 -6 -5 -5 -4 -4 -4 -5 -4 -4 -4 -5 -4 -4 -4 -4 -3 -6 -5 -5 -4 -6 -6 -6 -5
-7 -7 -7 -7 -7 -7 -7 -8 -7 -7 -8 -9 -8 -8 -8 -8 -8 -7 -8 -7 -6 -5 -5 -4 -4 -4 -4 -4 -4 -3 -4 -4 -4 -4 -4 -4 -4 -5 -5 -5 -7 -6 -6 -5
-8 -7 -7 -7 -7 -7 -8 -8 -8 -8 -8 -9 -9 -9 -8 -8 -8 -7 -7 -6 -6 -5 -5 -5 -5 -4 -4 -5 -4 -3 -3 -3 -4 -3 -3 -5 -6 -5 -5 -6 -7 -6 -6 -6
-8 -8 -8 -8 -8 -8 -8 -8 -8 -8 -8 -9 -8 -8 -8 -8 -8 -8 -7 -6 -5 -5 -5 -6 -6 -5 -5 -5 -6 -5 -3 -3 -4 -4 -5 -6 -5 -4 -4 -5 -8 -7 -7 -6
-8 -8 -8 -8 -8 -8 -8 -8 -8 -8 -8 -8 -8 -8 -8 -8 -8 -8 -8 -7 -7 -6 -6 -7 -7 -6 -6 -6 -6 -6 -5 -6 -6 -6 -6 -7 -6 -4 -4 -8 -7 -7 -7 -7
-8 -8 -8 -8 -8 -9 -9 -9 -8 -9 -8 -8 -8 -8 -8 -8 -8 -8 -8 -8 -8 -8 -7 -8 -8 -7 -7 -6 -6 -6 -7 -7 -7 -8 -8 -8 -8 -7 -8 -8 -7 -7 -7 -7
-9 -9 -9 -8 -9 -9 -9 -9 -9 -9 -9 -8 -8 -8 -8 -8 -8 -8 -8 -8 -8 -9 -8 -8 -8 -8 -7 -7 -7 -7 -7 -8 -7 -8 -8 -8 -8 -8 -8 -8 -8 -8 -8 -7
-9 -9 -9 -9 -9 -9 -9 -9 -9 -9 -9 -9 -9 -9 -8 -8 -8 -8 -8 -8 -8 -9 -8 -9 -9 -8 -8 -7 -7 -7 -8 -8 -7 -8 -7 -8 -8 -8 -8 -8 -8 -8 -7 -8
-9 -9 -9 -9 -9 -9 -9 -9 -9 -9 -8 -8 -9 -9 -8 -8 -8 -8 -8 -8 -9 -9 -8 -9 -9 -8 -8 -7 -7 -7 -7 -7 -8 -8 -7 -8 -8 -9 -9 -8 -8 -8 -8 -7
-10 -9 -9 -9 -9 -10 -10 -10 -10 -10 -9 -9 -9 -9 -9 -8 -8 -8 -8 -8 -8 -9 -9 -8 -8 -8 -8 -8 -7 -7 -7 -7 -7 -7 -8 -8 -8 -9 -9 -8 -8 -8 -8 -7
-10 -10 -10 -9 -9 -10 -10 -10 -10 -10 -9 -9 -9 -9 -8 -9 -8 -8 -7 -7 -8 -8 -9 -9 -8 -8 -8 -8 -8 -7 -7 -7 -7 -7 -7 -8 -8 -9 -8 -8 -7 -7 -8 -8
-10 -10 -10 -10 -10 -10 -10 -10 -10 -10 -10 -10 -9 -9 -8 -8 -8 -8 -8 -8 -8 -8 -8 -9 -9 -9 -9 -8 -7 -7 -7 -7 -7 -7 -7 -7 -8 -8 -8 -8 -8 -8 -8 -8
-10 -10 -10 -10 -10 -10 -11 -10 -10 -10 -10 -10 -9 -9 -9 -8 -8 -8 -8 -8 -8 -9 -8 -8 -9 -9 -9 -8 -8 -8 -8 -7 -7 -7 -7 -7 -8 -9 -9 -9 -9 -9 -9 -9
-11 -11 -11 -11 -10 -11 -11 -11 -10 -10 -10 -10 -9 -9 -9 -9 -8 -8 -8 -8 -9 -9 -9 -9 -9 -9 -9 -9 -9 -8 -8 -8 -8 -7 -7 -8 -8 -8 -9 -9 -9 -9 -9 -9
-12 -12 -12 -12 -11 -11 -10 -10 -10 -10 -10 -9 -8 -9 -9 -9 -9 -8 -9 -9 -9 -9 -9 -9 -9 -9 -9 -9 -9 -9 -9 -9 -8 -8 -8 -8 -8 -9 -10 -9 -10 -10 -10 -10
-12 -12 -12 -12 -12 -11 -10 -10 -10 -10 -9 -8 -8 -8 -8 -9 -9 -9 -9 -9 -9 -9 -9 -9 -9 -8 -8 -9 -9 -9 -9 -8 -8 -8 -9 -9 -9 -9 -9 -9 -10 -10 -10 -11
-13 -13 -12 -11 -11 -11 -10 -10 -10 -9 -8 -7 -8 -8 -9 -9 -9 -9 -9 -9 -9 -9 -9 -10 -8 -8 -8 -8 -8 -8 -8 -8 -8 -8 -9 -9 -9 -9 -10 -10 -10 -11 -11 -11
-14 -12 -12 -11 -10 -10 -10 -9 -9 -8 -7 -8 -8 -8 -8 -9 -9 -9 -9 -9 -9 -9 -10 -8 -7 -8 -8 -8 -8 -8 -8 -8 -9 -9 -9 -9 -9 -10 -10 -11 -11 -12 -12 -12
-13 -12 -11 -11 -10 -10 -9 -9 -8 -8 -8 -8 -8 -8 -9 -9 -9 -9 -9 -9 -10 -9 -8 -7 -8 -8 -8 -8 -8 -8 -8 -9 -8 -9 -9 -10 -10 -10 -10 -11 -11 -12 -12 -13
-13 -12 -11 -10 -10 -10 -9 -9 -8 -8 -8 -9 -9 -9 -9 -9 -9 -9 -9 -10 -8 -7 -7 -7 -7 -7 -8 -8 -8 -8 -8 -9 -9 -9 -9 -9 -10 -11 -11 -12 -12 -13 -13 -14
-12 -12 -11 -11 -10 -9 -9 -9 -9 -8 -9 -8 -9 -9 -8 -9 -10 -10 -9 -8 -7 -7 -7 -7 -7 -7 -8 -8 -8 -8 -8 -9 -9 -9 -9 -10 -11 -11 -12 -12 -13 -13 -13 -14

GFSNW_700_temp_114.txt.gz
Temp
-5 -5 -5 -4 -4 -4 -4 -4 -4 -5 -6 -7 -6 -6 -7 -7 -6 -6 -6 -7 -7 -7 -7 -6 -7 -6 -5 -4 -4 -4 -4 -5 -5 -4 -2 -2 -1 -0 0 -1 -2 -2 -3 -5
-5 -5 -5 -5 -5 -4 -4 -5 -6 -6 -7 -7 -7 -7 -7 -7 -6 -6 -6 -7 -8 -7 -7 -7 -6 -5 -4 -4 -4 -4 -4 -4 -3 -3 -3 -2 -2 -1 -1 -1 -2 -2 -3 -5
-6 -5 -6 -5 -5 -5 -5 -6 -7 -7 -7 -7 -7 -7 -7 -7 -7 -6 -6 -7 -7 -6 -6 -7 -6 -6 -4 -4 -4 -3 -3 -4 -5 -4 -4 -4 -3 -3 -3 -3 -3 -5 -5 -6
-6 -6 -6 -5 -5 -5 -6 -6 -7 -7 -7 -7 -7 -7 -7 -7 -6 -6 -7 -7 -6 -7 -6 -6 -6 -5 -4 -4 -4 -3 -3 -4 -4 -4 -4 -3 -4 -3 -3 -3 -4 -5 -6 -7
-6 -6 -6 -5 -5 -6 -6 -7 -7 -7 -8 -8 -8 -7 -7 -7 -7 -7 -7 -7 -5 -6 -6 -6 -5 -5 -6 -5 -4 -4 -3 -4 -4 -4 -5 -4 -5 -4 -4 -5 -5 -5 -6 -7
-7 -6 -6 -6 -6 -6 -7 -7 -7 -8 -8 -8 -8 -8 -7 -7 -7 -7 -7 -7 -5 -5 -5 -4 -4 -4 -5 -5 -6 -5 -4 -4 -4 -5 -5 -4 -6 -7 -6 -6 -5 -6 -6 -7
-7 -7 -5 -6 -6 -6 -7 -7 -7 -8 -8 -8 -8 -8 -8 -8 -8 -8 -7 -6 -5 -5 -4 -4 -4 -3 -4 -5 -5 -5 -4 -4 -4 -5 -4 -5 -7 -7 -7 -7 -7 -7 -7 -6
-7 -6 -6 -7 -7 -7 -7 -8 -8 -8 -8 -8 -8 -8 -8 -8 -7 -8 -7 -6 -6 -5 -5 -4 -4 -4 -4 -4 -5 -5 -4 -4 -4 -5 -5 -6 -7 -6 -7 -8 -8 -8 -7 -6
-7 -7 -7 -7 -7 -7 -7 -8 -8 -8 -8 -8 -8 -8 -8 -7 -7 -7 -7 -7 -6 -6 -5 -5 -5 -5 -5 -5 -4 -5 -5 -4 -4 -5 -5 -6 -7 -6 -6 -6 -9 -8 -7 -7
-7 -7 -7 -7 -7 -7 -8 -8 -8 -8 -8 -8 -8 -8 -8 -7 -7 -7 -7 -6 -6 -5 -5 -5 -6 -6 -6 -6 -6 -6 -4 -5 -5 -6 -6 -7 -7 -5 -5 -7 -9 -8 -7 -7
-7 -7 -7 -7 -7 -8 -8 -8 -8 -8 -8 -8 -8 -8 -8 -8 -8 -7 -7 -7 -7 -6 -5 -6 -7 -7 -7 -6 -7 -7 -6 -6 -7 -7 -7 -8 -6 -6 -6 -8 -8 -8 -7 -6
-8 -8 -7 -8 -8 -8 -8 -8 -8 -8 -9 -8 -8 -8 -8 -8 -8 -8 -7 -8 -8 -8 -7 -7 -8 -7 -7 -7 -7 -7 -7 -7 -7 -8 -8 -9 -8 -7 -7 -8 -8 -7 -7 -7
-8 -8 -8 -8 -8 -8 -8 -8 -8 -8 -8 -8 -8 -8 -8 -8 -8 -8 -8 -8 -8 -8 -8 -7 -9 -8 -7 -8 -7 -7 -8 -8 -8 -8 -9 -8 -8 -8 -8 -8 -8 -8 -7 -7
-9 -8 -8 -8 -8 -8 -8 -8 -9 -9 -9 -9 -8 -8 -8 -8 -8 -8 -8 -8 -8 -8 -9 -8 -9 -8 -8 -8 -8 -7 -8 -8 -8 -8 -9 -9 -8 -8 -8 -8 -7 -8 -7 -7
-9 -9 -9 -9 -9 -9 -9 -9 -9 -9 -9 -8 -8 -8 -8 -8 -8 -8 -8 -8 -8 -8 -9 -8 -8 -8 -8 -8 -8 -8 -7 -7 -8 -8 -8 -8 -8 -8 -8 -8 -8 -7 -8 -7
-9 -9 -9 -9 -9 -9 -9 -9 -9 -9 -9 -9 -9 -9 -8 -8 -8 -8 -8 -8 -8 -8 -8 -8 -9 -8 -8 -8 -8 -7 -7 -7 -7 -7 -7 -8 -8 -8 -8 -7 -8 -8 -8 -7
-10 -9 -9 -9 -9 -9 -10 -9 -9 -9 -9 -9 -9 -9 -8 -8 -8 -8 -7 -8 -8 -8 -8 -9 -9 -9 -9 -8 -8 -7 -7 -7 -7 -7 -7 -7 -8 -7 -7 -7 -8 -8 -8 -8
-10 -10 -9 -10 -9 -10 -10 -10 -9 -9 -9 -9 -8 -8 -9 -8 -8 -8 -8 -8 -8 -8 -8 -8 -8 -9 -9 -8 -8 -8 -7 -7 -8 -7 -7 -7 -8 -8 -8 -8 -8 -8 -8 -8
-10 -10 -10 -10 -10 -10 -11 -11 -10 -10 -9 -9 -8 -8 -8 -8 -8 -8 -8 -8 -8 -8 -8 -9 -9 -9 -9 -8 -8 -8 -8 -8 -8 -8 -8 -8 -8 -8 -8 -8 -8 -8 -8 -9
-11 -11 -10 -10 -10 -11 -11 -11 -11 -10 -9 -9 -8 -9 -8 -8 -8 -8 -8 -8 -8 -9 -9 -9 -9 -9 -8 -9 -9 -9 -8 -8 -8 -8 -8 -8 -9 -9 -9 -8 -9 -9 -9 -9
-11 -11 -11 -11 -11 -11 -11 -11 -10 -10 -9 -8 -8 -9 -9 -9 -9 -9 -9 -9 -9 -9 -9 -9 -9 -9 -8 -9 -9 -9 -9 -9 -9 -8 -8 -8 -8 -9 -9 -9 -9 -9 -10 -10
-12 -12 -12 -12 -11 -11 -11 -11 -10 -9 -9 -8 -8 -8 -8 -9 -9 -9 -9 -9 -9 -9 -9 -9 -9 -8 -8 -8 -9 -9 -9 -9 -9 -9 -9 -9 -9 -9 -9 -9 -10 -10 -10 -11
-13 -13 -12 -11 -11 -11 -11 -11 -10 -9 -8 -8 -8 -8 -9 -9 -9 -9 -9 -9 -9 -10 -10 -10 -8 -8 -8 -8 -9 -9 -9 -9 -9 -9 -9 -9 -9 -9 -9 -10 -10 -11 -11 -12
-12 -12 -12 -11 -11 -11 -10 -9 -9 -8 -8 -8 -8 -8 -9 -9 -9 -9 -9 -9 -9 -10 -10 -8 -8 -8 -8 -8 -8 -8 -9 -9 -9 -9 -9 -9 -9 -9 -10 -10 -11 -11 -12 -12
-13 -12 -11 -11 -11 -10 -10 -9 -9 -9 -9 -8 -8 -9 -9 -9 -9 -9 -9 -10 -10 -9 -7 -7 -7 -8 -8 -8 -8 -8 -8 -9 -9 -9 -9 -9 -9 -10 -10 -11 -11 -12 -12 -13
-13 -12 -12 -11 -10 -10 -9 -9 -9 -9 -9 -9 -9 -9 -9 -9 -9 -9 -9 -11 -8 -7 -7 -7 -7 -7 -7 -8 -8 -8 -8 -8 -9 -9 -9 -9 -9 -10 -10 -11 -11 -12 -13 -13
-13 -12 -12 -11 -11 -10 -9 -9 -9 -9 -9 -9 -9 -9 -8 -9 -9 -10 -8 -7 -7 -7 -7 -7 -7 -7 -8 -8 -8 -8 -8 -9 -9 -9 -9 -9 -10 -10 -11 -12 -12 -13 -13 -13

GFSNW_700_temp_117.txt.gz
Temp
-8 -7 -6 -5 -4 -4 -4 -4 -5 -4 -5 -5 -5 -6 -6 -6 -6 -5 -6 -6 -6 -7 -7 -6 -6 -6 -6 -6 -5 -4 -4 -4 -4 -3 -4 -3 -3 -2 -2 -1 -1 -2 -3 -6
-7 -6 -5 -6 -5 -4 -5 -5 -5 -5 -5 -6 -6 -7 -7 -7 -6 -6 -6 -6 -7 -7 -7 -6 -6 -6 -5 -5 -5 -5 -4 -4 -5 -3 -3 -3 -3 -2 -1 -1 -2 -3 -4 -6
-7 -6 -7 -5 -5 -5 -5 -5 -5 -6 -6 -6 -6 -7 -7 -6 -6 -6 -6 -6 -6 -6 -6 -6 -6 -6 -5 -5 -5 -5 -4 -5 -5 -4 -4 -5 -4 -2 -2 -1 -3 -6 -6 -7
-7 -7 -6 -5 -5 -5 -5 -5 -5 -5 -6 -7 -7 -7 -7 -7 -6 -6 -6 -6 -6 -6 -6 -6 -5 -5 -5 -5 -5 -5 -4 -5 -5 -5 -6 -5 -4 -3 -3 -3 -5 -6 -7 -7
-8 -7 -6 -6 -6 -6 -6 -5 -5 -6 -6 -7 -7 -7 -7 -7 -6 -6 -6 -6 -6 -6 -6 -6 -5 -5 -5 -5 -4 -5 -5 -5 -4 -5 -6 -5 -5 -5 -5 -5 -6 -6 -6 -6
-8 -6 -6 -6 -6 -6 -4 -5 -5 -6 -7 -8 -8 -7 -7 -7 -7 -7 -6 -5 -5 -5 -5 -4 -4 -4 -5 -6 -5 -5 -5 -5 -5 -5 -5 -5 -7 -7 -6 -6 -6 -6 -6 -7
-7 -7 -7 -6 -6 -5 -5 -6 -6 -7 -7 -8 -8 -8 -8 -8 -7 -7 -6 -6 -6 -5 -4 -4 -4 -4 -5 -5 -6 -5 -4 -4 -5 -5 -5 -6 -8 -7 -7 -7 -7 -7 -7 -7
-7 -7 -7 -7 -6 -6 -6 -6 -7 -7 -8 -8 -8 -8 -8 -8 -8 -7 -6 -7 -6 -5 -5 -4 -4 -4 -4 -6 -6 -5 -5 -4 -5 -5 -6 -7 -7 -7 -7 -8 -8 -8 -7 -7
-8 -7 -7 -7 -6 -6 -6 -7 -7 -8 -8 -8 -8 -8 -8 -8 -8 -8 -7 -7 -6 -6 -5 -5 -5 -6 -6 -5 -5 -5 -5 -5 -5 -5 -5 -7 -8 -7 -7 -7 -9 -8 -7 -7
-7 -7 -7 -6 -6 -6 -7 -7 -7 -8 -8 -8 -8 -8 -7 -7 -7 -7 -7 -7 -6 -5 -5 -5 -6 -6 -7 -6 -7 -7 -5 -5 -6 -6 -7 -7 -7 -6 -7 -8 -8 -7 -7 -7
-8 -7 -7 -7 -7 -7 -7 -7 -7 -8 -8 -8 -8 -8 -7 -7 -7 -7 -7 -6 -6 -5 -5 -6 -7 -7 -7 -7 -7 -7 -7 -7 -7 -7 -7 -8 -7 -7 -7 -8 -8 -8 -7 -7
-8 -8 -7 -7 -7 -7 -7 -7 -7 -8 -8 -8 -8 -8 -8 -8 -8 -7 -7 -7 -7 -6 -6 -7 -7 -7 -7 -7 -7 -7 -7 -8 -8 -9 -9 -9 -8 -7 -7 -8 -8 -8 -8 -8
-9 -8 -8 -7 -7 -7 -8 -7 -8 -8 -8 -9 -8 -8 -8 -8 -8 -8 -8 -8 -8 -8 -8 -7 -8 -8 -7 -7 -7 -7 -7 -8 -7 -8 -9 -9 -8 -8 -8 -8 -8 -8 -8 -8
-9 -8 -8 -7 -7 -8 -8 -8 -8 -8 -9 -8 -8 -8 -8 -8 -8 -8 -8 -8 -8 -8 -8 -8 -9 -8 -8 -8 -8 -7 -7 -7 -7 -7 -8 -8 -8 -8 -8 -8 -8 -8 -8 -8
-9 -8 -8 -8 -8 -8 -8 -8 -8 -9 -8 -8 -8 -8 -8 -8 -8 -8 -8 -8 -8 -8 -9 -9 -9 -9 -8 -8 -8 -8 -7 -7 -7 -7 -7 -7 -8 -8 -8 -8 -8 -8 -8 -8
-9 -8 -8 -8 -8 -8 -8 -9 -9 -9 -9 -9 -9 -8 -8 -8 -8 -8 -8 -8 -8 -8 -9 -9 -9 -9 -8 -8 -8 -7 -7 -7 -7 -7 -7 -7 -8 -8 -9 -8 -8 -8 -8 -8
-10 -9 -9 -9 -9 -9 -8 -9 -8 -9 -9 -9 -9 -8 -8 -8 -8 -7 -7 -8 -8 -8 -8 -9 -9 -9 -8 -8 -8 -7 -7 -7 -7 -7 -8 -8 -8 -8 -9 -9 -8 -8 -8 -8
-10 -10 -9 -9 -9 -9 -9 -9 -9 -9 -9 -9 -8 -9 -8 -8 -8 -8 -8 -8 -8 -8 -8 -9 -9 -9 -9 -8 -8 -8 -7 -8 -8 -8 -8 -8 -8 -8 -8 -8 -8 -8 -8 -8
-10 -10 -10 -9 -10 -10 -10 -9 -9 -9 -9 -9 -8 -8 -8 -8 -8 -8 -8 -8 -8 -8 -8 -9 -9 -9 -9 -8 -8 -8 -8 -8 -8 -8 -8 -8 -8 -8 -8 -8 -8 -8 -8 -9
-11 -10 -10 -10 -10 -11 -10 -10 -10 -10 -9 -9 -8 -8 -8 -8 -8 -8 -8 -8 -8 -9 -9 -9 -9 -8 -9 -8 -8 -9 -9 -9 -9 -9 -8 -8 -8 -8 -8 -8 -9 -9 -9 -9
-11 -11 -11 -10 -11 -11 -11 -11 -10 -10 -9 -9 -9 -8 -8 -9 -9 -8 -8 -8 -8 -9 -9 -9 -9 -8 -8 -8 -9 -9 -10 -10 -9 -9 -9 -8 -8 -8 -8 -8 -8 -9 -9 -10
-12 -12 -11 -11 -12 -11 -11 -11 -10 -9 -9 -9 -8 -8 -9 -9 -9 -9 -9 -9 -9 -9 -9 -9 -9 -7 -8 -8 -9 -9 -10 -10 -10 -9 -9 -8 -8 -8 -8 -8 -9 -9 -10 -10
-13 -12 -12 -12 -12 -11 -11 -10 -10 -9 -8 -8 -8 -8 -9 -9 -9 -9 -9 -9 -9 -9 -10 -10 -7 -8 -8 -8 -8 -9 -9 -9 -9 -9 -8 -8 -8 -8 -9 -9 -9 -10 -10 -10
-13 -12 -12 -11 -11 -11 -10 -9 -9 -8 -8 -8 -8 -8 -9 -9 -9 -9 -9 -9 -9 -11 -10 -8 -8 -8 -8 -8 -8 -8 -8 -8 -8 -8 -8 -8 -9 -9 -9 -9 -10 -10 -10 -11
-12 -12 -11 -11 -11 -10 -9 -9 -9 -9 -9 -8 -8 -8 -9 -9 -9 -9 -9 -9 -11 -10 -7 -7 -8 -8 -7 -8 -8 -8 -8 -8 -8 -8 -8 -9 -9 -9 -9 -10 -10 -10 -11 -11
-12 -12 -12 -11 -10 -10 -10 -9 -9 -9 -9 -9 -9 -9 -9 -9 -9 -8 -8 -9 -8 -7 -7 -7 -8 -7 -7 -7 -8 -8 -8 -8 -8 -8 -8 -9 -9 -9 -10 -10 -10 -11 -11 -12
-13 -12 -12 -11 -11 -10 -10 -10 -10 -10 -9 -9 -10 -9 -9 -9 -9 -9 -8 -7 -7 -7 -7 -8 -8 -7 -8 -8 -8 -8 -8 -8 -8 -8 -9 -9 -9 -10 -10 -10 -11 -11 -12 -12

GFSNW_700_temp_123.txt.gz
Temp
-3 -3 -4 -4 -3 -3 -3 -5 -7 -8 -7 -7 -6 -6 -4 -3 -3 -3 -3 -4 -4 -4 -5 -5 -5 -6 -6 -5 -5 -5 -5 -5 -6 -4 -4 -4 -4 -5 -4 -4 -3 -4 -5 -8
-8 -8 -5 -4 -4 -4 -4 -8 -8 -7 -7 -7 -7 -6 -5 -4 -4 -4 -4 -4 -4 -5 -5 -5 -5 -5 -6 -5 -5 -6 -5 -5 -6 -4 -4 -4 -5 -4 -4 -4 -4 -5 -4 -8
-5 -6 -6 -5 -5 -5 -8 -8 -8 -8 -7 -6 -6 -5 -5 -5 -5 -5 -4 -5 -5 -5 -5 -5 -5 -5 -5 -5 -6 -6 -5 -6 -6 -7 -7 -7 -6 -5 -4 -4 -4 -6 -8 -9
-6 -7 -7 -7 -7 -9 -9 -7 -7 -6 -7 -6 -5 -5 -5 -5 -6 -5 -5 -5 -5 -5 -5 -5 -5 -5 -5 -5 -6 -5 -5 -5 -5 -6 -7 -8 -7 -5 -5 -4 -6 -6 -9 -8
-8 -8 -8 -9 -10 -8 -7 -6 -6 -5 -6 -6 -6 -6 -6 -6 -5 -5 -5 -5 -5 -5 -5 -5 -5 -5 -5 -5 -5 -5 -5 -5 -5 -5 -6 -7 -7 -7 -7 -7 -7 -8 -8 -8
-9 -11 -10 -10 -10 -8 -6 -5 -4 -4 -5 -6 -6 -6 -6 -7 -6 -6 -6 -6 -6 -5 -5 -5 -4 -5 -5 -5 -5 -5 -5 -6 -5 -6 -6 -7 -7 -8 -7 -7 -7 -7 -8 -9
-11 -10 -10 -9 -7 -7 -6 -5 -4 -4 -5 -6 -6 -6 -6 -7 -6 -6 -6 -6 -6 -6 -5 -5 -4 -5 -5 -5 -5 -6 -6 -5 -5 -5 -5 -6 -8 -8 -8 -7 -8 -8 -8 -8
-9 -9 -9 -9 -8 -7 -7 -6 -5 -4 -5 -6 -7 -7 -7 -7 -7 -7 -7 -7 -6 -6 -5 -5 -5 -5 -5 -6 -6 -6 -6 -5 -5 -6 -7 -7 -8 -8 -7 -7 -8 -8 -8 -7
-10 -9 -9 -8 -8 -7 -6 -6 -6 -5 -5 -7 -7 -7 -7 -7 -7 -7 -7 -7 -6 -6 -5 -5 -5 -5 -5 -6 -6 -7 -6 -6 -6 -6 -5 -6 -7 -7 -7 -7 -8 -7 -8 -7
-9 -8 -7 -7 -7 -7 -7 -7 -6 -6 -6 -7 -7 -7 -7 -7 -7 -7 -7 -7 -6 -6 -6 -6 -6 -6 -6 -6 -6 -5 -6 -6 -7 -7 -7 -7 -7 -7 -7 -8 -8 -8 -8 -7
-9 -8 -8 -8 -7 -7 -7 -6 -7 -7 -6 -7 -7 -7 -7 -6 -6 -6 -6 -7 -7 -6 -6 -6 -6 -6 -6 -7 -7 -7 -7 -7 -7 -7 -8 -7 -7 -7 -8 -8 -8 -8 -8 -8
-9 -9 -8 -8 -8 -7 -6 -7 -7 -7 -7 -7 -7 -7 -7 -7 -6 -6 -6 -6 -6 -6 -6 -6 -6 -7 -7 -7 -7 -8 -7 -7 -7 -7 -7 -8 -7 -7 -8 -8 -8 -8 -8 -8
-10 -9 -8 -8 -7 -7 -7 -7 -7 -7 -7 -7 -8 -7 -7 -7 -7 -6 -6 -7 -6 -6 -6 -6 -7 -7 -7 -7 -7 -7 -7 -7 -6 -7 -7 -8 -8 -8 -8 -8 -8 -8 -8 -8
-10 -9 -8 -8 -7 -7 -7 -7 -7 -8 -7 -8 -8 -8 -8 -8 -7 -7 -7 -7 -7 -7 -7 -7 -7 -7 -7 -7 -7 -7 -7 -7 -7 -7 -7 -7 -7 -8 -8 -8 -8 -8 -8 -8
-10 -9 -8 -8 -7 -7 -7 -7 -8 -8 -7 -7 -8 -8 -8 -8 -8 -7 -7 -7 -7 -7 -7 -7 -7 -8 -8 -8 -8 -7 -7 -7 -7 -7 -7 -7 -7 -8 -8 -8 -8 -8 -8 -8
-10 -9 -8 -8 -8 -8 -7 -8 -8 -8 -8 -8 -9 -9 -9 -8 -8 -7 -7 -7 -7 -7 -8 -8 -8 -8 -8 -8 -8 -7 -7 -7 -7 -7 -7 -7 -8 -8 -8 -8 -8 -8 -7 -7
-10 -9 -9 -8 -8 -8 -7 -7 -8 -8 -8 -8 -8 -9 -9 -8 -7 -8 -7 -7 -7 -8 -8 -8 -8 -8 -8 -8 -8 -7 -7 -7 -7 -7 -8 -8 -8 -8 -8 -8 -8 -8 -8 -8
-11 -10 -10 -9 -8 -8 -8 -8 -8 -9 -9 -8 -8 -9 -9 -8 -8 -8 -8 -8 -8 -8 -8 -8 -8 -8 -8 -8 -7 -7 -7 -7 -7 -7 -7 -7 -8 -8 -8 -8 -8 -8 -8 -8
-11 -11 -10 -9 -9 -8 -9 -8 -9 -9 -9 -8 -8 -8 -8 -8 -8 -8 -8 -8 -8 -8 -8 -8 -8 -8 -8 -7 -7 -7 -7 -7 -7 -7 -7 -7 -8 -8 -8 -8 -8 -8 -9 -9
-11 -11 -11 -10 -9 -10 -9 -9 -10 -10 -9 -8 -8 -7 -7 -8 -8 -8 -8 -8 -8 -8 -8 -8 -8 -7 -7 -8 -8 -8 -8 -8 -8 -8 -8 -7 -7 -8 -8 -8 -9 -9 -9 -9
-12 -11 -10 -10 -10 -10 -10 -10 -10 -10 -9 -9 -8 -8 -7 -8 -8 -8 -8 -8 -8 -8 -8 -8 -8 -7 -7 -7 -8 -8 -8 -8 -8 -8 -8 -8 -8 -8 -8 -8 -9 -9 -9 -10
-11 -11 -10 -11 -11 -11 -10 -10 -10 -10 -9 -9 -8 -8 -8 -8 -8 -8 -8 -8 -8 -9 -9 -8 -8 -7 -7 -8 -8 -8 -9 -9 -9 -9 -8 -8 -8 -8 -8 -9 -9 -9 -9 -10
-11 -11 -12 -11 -11 -10 -10 -10 -9 -9 -8 -8 -8 -8 -8 -9 -8 -8 -8 -8 -9 -9 -8 -8 -7 -8 -8 -8 -8 -8 -9 -9 -9 -9 -9 -8 -8 -9 -9 -9 -9 -9 -9 -10
-12 -12 -12 -11 -10 -10 -10 -10 -9 -8 -8 -8 -9 -8 -9 -9 -9 -9 -9 -9 -9 -9 -8 -8 -8 -8 -8 -8 -8 -8 -9 -9 -9 -9 -9 -9 -9 -9 -9 -9 -9 -9 -9 -10
-12 -11 -11 -11 -10 -10 -10 -9 -9 -9 -9 -9 -9 -9 -9 -9 -9 -9 -9 -9 -9 -8 -7 -8 -8 -8 -8 -8 -8 -8 -9 -9 -9 -9 -9 -9 -9 -9 -9 -9 -9 -10 -10 -11
-11 -11 -11 -11 -10 -11 -10 -10 -9 -9 -9 -9 -10 -9 -9 -9 -9 -8 -8 -8 -8 -8 -8 -8 -8 -8 -7 -8 -8 -8 -8 -8 -8 -9 -9 -9 -9 -9 -9 -9 -10 -10 -11 -11
-12 -12 -11 -11 -11 -11 -10 -10 -10 -9 -9 -10 -9 -9 -9 -9 -8 -8 -8 -8 -8 -8 -8 -8 -8 -8 -8 -8 -8 -8 -8 -8 -8 -9 -8 -8 -9 -9 -10 -10 -10 -11 -11 -11

GFSNW_700_temp_129.txt.gz
Temp
-2 -2 0 -2 -2 -3 -5 -5 -5 -5 -5 -5 -5 -5 -5 -5 -6 -5 -3 -4 -4 -4 -5 -4 -3 -2 -4 -4 -4 -4 -4 -4 -3 -1 -1 -2 -2 -2 -3 -1 1 -0 -1 -4
-3 -3 -3 -3 -3 -4 -5 -5 -5 -6 -6 -6 -6 -6 -6 -5 -6 -4 -4 -3 -3 -4 -4 -4 -4 -3 -4 -5 -5 -4 -5 -4 -1 -1 -2 -2 -2 -3 -4 -4 -3 -2 -1 -5
-6 -4 -4 -4 -4 -4 -4 -5 -7 -7 -8 -7 -6 -6 -6 -6 -6 -5 -5 -3 -2 -2 -4 -3 -4 -5 -5 -5 -5 -4 -4 -3 -3 -0 -3 -4 -5 -6 -5 -4 -3 -3 -5 -7
-7 -5 -4 -4 -4 -4 -4 -5 -5 -6 -8 -7 -7 -7 -6 -6 -6 -6 -5 -3 -3 -2 -4 -4 -5 -5 -5 -5 -5 -5 -5 -5 -5 -5 -5 -6 -6 -7 -5 -4 -4 -4 -6 -6
-8 -7 -5 -5 -4 -4 -4 -4 -5 -6 -7 -7 -8 -7 -7 -7 -6 -5 -5 -4 -4 -4 -3 -4 -4 -4 -5 -5 -5 -5 -5 -5 -5 -6 -6 -6 -6 -6 -6 -7 -6 -5 -6 -6
-8 -8 -7 -6 -5 -5 -4 -4 -5 -5 -7 -8 -7 -7 -8 -7 -6 -4 -4 -5 -4 -5 -5 -5 -5 -5 -5 -5 -4 -5 -5 -4 -4 -3 -5 -5 -5 -6 -7 -7 -7 -7 -6 -7
-8 -8 -8 -8 -7 -7 -6 -5 -5 -5 -8 -8 -8 -8 -7 -7 -5 -4 -5 -5 -5 -5 -4 -4 -4 -4 -4 -4 -5 -5 -4 -4 -4 -4 -5 -3 -6 -6 -6 -6 -7 -7 -7 -7
-9 -10 -10 -9 -9 -8 -8 -7 -7 -7 -8 -7 -7 -7 -6 -7 -7 -6 -6 -6 -4 -4 -4 -5 -5 -5 -5 -5 -5 -6 -5 -4 -3 -3 -3 -7 -7 -6 -6 -7 -7 -7 -7 -7
-10 -9 -9 -9 -8 -8 -8 -8 -8 -8 -8 -8 -7 -7 -7 -7 -7 -7 -5 -5 -4 -4 -5 -5 -3 -3 -2 -3 -5 -5 -5 -5 -5 -3 -2 -2 -5 -7 -6 -6 -7 -6 -7 -6
-10 -9 -9 -9 -9 -9 -9 -9 -8 -7 -6 -6 -6 -6 -7 -7 -7 -6 -6 -5 -5 -5 -6 -5 -3 -2 -3 -3 -3 -5 -5 -4 -4 -3 -3 -6 -7 -5 -6 -7 -6 -6 -6 -6
-9 -9 -9 -9 -9 -9 -9 -8 -7 -6 -6 -7 -7 -7 -7 -7 -7 -7 -7 -6 -6 -6 -6 -4 -4 -3 -4 -4 -3 -4 -4 -3 -5 -4 -3 -4 -6 -7 -7 -6 -6 -6 -7 -7
-10 -10 -10 -9 -9 -9 -8 -7 -7 -7 -7 -6 -7 -7 -6 -6 -7 -7 -6 -7 -5 -6 -5 -5 -4 -5 -5 -3 -5 -5 -5 -5 -5 -5 -6 -6 -6 -7 -7 -7 -7 -7 -7 -7
-10 -10 -10 -10 -9 -9 -8 -8 -7 -7 -7 -8 -8 -7 -7 -6 -6 -6 -6 -6 -5 -5 -6 -6 -6 -5 -4 -5 -3 -6 -6 -5 -7 -6 -6 -6 -7 -7 -7 -7 -7 -7 -7 -7
-11 -10 -10 -10 -9 -9 -8 -8 -6 -7 -6 -7 -8 -7 -7 -6 -6 -6 -6 -5 -6 -5 -5 -6 -6 -5 -5 -4 -5 -5 -6 -6 -7 -6 -6 -7 -7 -7 -7 -8 -7 -7 -7 -7
-11 -11 -10 -9 -8 -8 -8 -8 -7 -7 -7 -7 -7 -7 -7 -7 -6 -6 -6 -6 -6 -6 -6 -6 -6 -6 -7 -7 -6 -6 -6 -7 -7 -7 -6 -6 -7 -7 -7 -8 -8 -8 -8 -7
-10 -10 -10 -9 -9 -9 -9 -8 -8 -8 -7 -7 -9 -8 -8 -7 -7 -7 -6 -6 -6 -7 -8 -8 -8 -6 -6 -6 -6 -7 -6 -6 -6 -6 -6 -6 -7 -7 -7 -8 -8 -8 -8 -8
-10 -10 -9 -9 -9 -9 -7 -7 -7 -8 -7 -7 -10 -10 -8 -8 -7 -7 -7 -7 -7 -8 -7 -8 -8 -7 -7 -8 -6 -7 -6 -6 -6 -6 -6 -6 -7 -7 -8 -8 -8 -8 -8 -8
-10 -10 -9 -9 -9 -9 -8 -7 -8 -8 -8 -8 -9 -9 -9 -8 -8 -7 -7 -7 -7 -7 -7 -7 -8 -8 -7 -8 -8 -7 -7 -7 -6 -6 -7 -7 -7 -7 -8 -8 -8 -8 -8 -8
-10 -9 -10 -9 -9 -8 -8 -8 -8 -8 -8 -7 -8 -9 -9 -8 -7 -7 -7 -7 -7 -7 -8 -8 -8 -7 -8 -8 -8 -7 -7 -7 -7 -7 -7 -7 -7 -8 -8 -8 -8 -8 -8 -8
-10 -10 -11 -10 -9 -8 -9 -9 -9 -9 -8 -8 -8 -8 -7 -8 -7 -7 -7 -7 -7 -9 -8 -7 -8 -8 -7 -7 -7 -7 -7 -7 -7 -7 -7 -7 -7 -8 -8 -8 -8 -8 -8 -8
-10 -10 -10 -9 -9 -9 -9 -9 -9 -9 -8 -8 -7 -8 -7 -8 -8 -7 -7 -8 -8 -8 -8 -8 -8 -7 -7 -7 -7 -7 -7 -8 -8 -8 -7 -8 -8 -8 -8 -8 -8 -8 -8 -8
-10 -10 -10 -10 -10 -9 -9 -9 -9 -9 -9 -8 -8 -8 -8 -8 -8 -8 -8 -7 -7 -8 -7 -7 -8 -8 -7 -7 -7 -7 -8 -8 -8 -8 -8 -8 -8 -8 -8 -8 -8 -8 -8 -9
-11 -12 -12 -10 -10 -9 -9 -9 -9 -9 -8 -7 -7 -8 -8 -8 -8 -7 -7 -7 -8 -8 -8 -8 -8 -7 -7 -7 -7 -8 -8 -8 -8 -9 -9 -9 -8 -8 -8 -8 -8 -8 -9 -9
-12 -12 -12 -10 -10 -10 -9 -10 -8 -7 -7 -8 -8 -8 -8 -8 -7 -7 -7 -8 -8 -8 -9 -8 -8 -7 -7 -7 -8 -8 -8 -8 -9 -9 -9 -9 -9 -9 -9 -9 -9 -9 -9 -9
-12 -12 -11 -10 -9 -9 -8 -8 -8 -7 -8 -8 -8 -8 -8 -8 -8 -7 -8 -8 -9 -9 -8 -8 -7 -7 -7 -7 -7 -8 -8 -9 -9 -9 -9 -9 -9 -9 -9 -9 -9 -9 -9 -9
-11 -11 -10 -10 -9 -9 -9 -9 -8 -8 -8 -9 -9 -9 -8 -8 -8 -8 -8 -9 -8 -9 -7 -7 -8 -8 -8 -7 -7 -8 -8 -9 -9 -9 -9 -10 -10 -10 -9 -9 -9 -9 -9 -9
-11 -11 -10 -10 -11 -10 -9 -9 -9 -9 -9 -10 -9 -8 -8 -8 -8 -8 -8 -8 -7 -7 -7 -8 -8 -8 -8 -7 -8 -8 -8 -9 -9 -9 -9 -9 -10 -10 -10 -10 -10 -10 -9 -10

GFSNW_700_temp_132.txt.gz
Temp
-3 -2 -2 -1 -1 -3 -4 -2 -4 -4 -6 -5 -7 -6 -6 -5 -3 -4 -2 -2 -2 -2 -2 -3 -3 -3 -2 -2 -3 -3 -3 -3 -3 -0 0 0 -1 -1 -1 -2 0 1 -1 -4
-2 -2 -2 -1 -1 -2 -3 -3 -5 -7 -6 -6 -6 -6 -6 -5 -4 -4 -3 -3 -2 -3 -3 -3 -3 -3 -3 -3 -3 -3 -3 -3 -2 -0 -0 -1 -1 -2 -2 -2 -3 -3 -2 -5
-3 -2 -2 -3 -4 -4 -3 -4 -7 -8 -7 -6 -6 -6 -5 -5 -5 -5 -5 -4 -4 -4 -4 -3 -2 -1 -4 -4 -3 -4 -4 -3 -2 -3 -3 -3 -3 -4 -5 -4 -3 -2 -4 -4
-4 -4 -4 -4 -5 -6 -5 -6 -6 -7 -7 -6 -6 -5 -5 -5 -5 -5 -5 -6 -4 -3 -4 -3 -3 -4 -4 -4 -4 -4 -4 -4 -4 -3 -4 -3 -3 -4 -5 -5 -4 -3 -5 -4
-6 -8 -6 -6 -6 -6 -5 -6 -6 -7 -6 -7 -6 -6 -5 -5 -5 -5 -5 -5 -4 -3 -3 -2 -1 -2 -5 -5 -5 -5 -4 -4 -4 -4 -4 -5 -5 -5 -5 -6 -6 -5 -5 -5
-8 -8 -7 -6 -7 -6 -6 -5 -6 -5 -6 -7 -6 -5 -5 -5 -6 -6 -5 -5 -5 -5 -4 -4 -3 -4 -4 -4 -4 -4 -4 -5 -5 -4 -3 -5 -5 -5 -5 -6 -6 -6 -6 -5
-8 -9 -8 -7 -7 -7 -6 -5 -6 -5 -7 -7 -6 -6 -5 -6 -7 -7 -6 -5 -5 -5 -4 -4 -4 -5 -5 -4 -4 -4 -4 -4 -4 -3 -4 -3 -4 -5 -6 -7 -6 -5 -5 -6
-8 -8 -8 -8 -7 -7 -7 -6 -5 -5 -6 -7 -7 -7 -6 -7 -7 -7 -7 -6 -5 -4 -4 -5 -5 -5 -5 -4 -4 -4 -4 -4 -4 -3 -3 -6 -6 -5 -5 -6 -6 -5 -5 -5
-9 -9 -10 -8 -8 -7 -7 -7 -7 -6 -6 -7 -6 -6 -7 -7 -7 -7 -7 -6 -5 -5 -5 -4 -3 -3 -3 -3 -4 -4 -4 -4 -4 -3 -2 -2 -5 -5 -6 -7 -6 -5 -5 -5
-10 -9 -10 -9 -8 -8 -8 -8 -7 -7 -7 -7 -7 -7 -7 -7 -7 -7 -6 -5 -5 -5 -5 -5 -3 -2 -2 -3 -3 -4 -4 -4 -4 -3 -2 -5 -6 -7 -6 -6 -6 -5 -5 -5
-9 -9 -9 -9 -8 -8 -8 -7 -7 -7 -7 -7 -7 -7 -7 -7 -6 -6 -6 -6 -6 -5 -5 -4 -3 -2 -2 -3 -2 -4 -4 -4 -3 -3 -3 -5 -6 -6 -7 -6 -6 -6 -6 -5
-9 -9 -9 -9 -9 -9 -9 -7 -7 -7 -6 -7 -7 -7 -7 -7 -7 -7 -6 -5 -5 -5 -5 -4 -3 -3 -4 -3 -3 -3 -4 -4 -4 -4 -4 -5 -5 -5 -6 -6 -6 -6 -6 -6
-9 -9 -9 -10 -10 -9 -9 -8 -8 -7 -6 -7 -7 -7 -6 -6 -6 -6 -6 -6 -6 -5 -5 -4 -5 -4 -4 -4 -3 -5 -4 -4 -5 -5 -4 -5 -5 -6 -6 -7 -7 -6 -7 -7
-10 -9 -9 -9 -9 -9 -8 -8 -8 -7 -7 -7 -7 -7 -7 -7 -6 -6 -6 -5 -5 -5 -5 -6 -5 -5 -4 -4 -4 -4 -6 -5 -5 -5 -5 -5 -5 -6 -7 -7 -7 -7 -7 -7
-10 -10 -10 -9 -9 -9 -8 -8 -8 -8 -8 -8 -8 -8 -7 -7 -6 -6 -6 -6 -6 -6 -6 -6 -6 -6 -5 -6 -5 -5 -5 -5 -6 -6 -5 -5 -5 -6 -7 -7 -7 -8 -8 -8
-11 -9 -9 -10 -9 -9 -9 -9 -9 -8 -7 -8 -9 -9 -8 -7 -6 -6 -6 -6 -7 -7 -7 -6 -6 -6 -5 -6 -6 -6 -6 -6 -5 -5 -6 -5 -6 -6 -7 -7 -7 -8 -8 -8
-10 -10 -10 -10 -9 -9 -9 -8 -8 -8 -8 -7 -9 -10 -9 -8 -7 -7 -7 -7 -6 -7 -7 -7 -7 -6 -6 -6 -6 -6 -6 -6 -6 -6 -6 -6 -6 -6 -7 -7 -8 -8 -8 -8
-10 -10 -10 -10 -10 -9 -9 -8 -8 -8 -8 -8 -9 -9 -9 -8 -8 -7 -7 -7 -7 -7 -7 -7 -7 -7 -7 -7 -7 -7 -6 -6 -6 -6 -6 -6 -7 -7 -7 -8 -8 -8 -8 -8
-10 -10 -10 -10 -9 -9 -8 -8 -8 -8 -8 -8 -8 -9 -9 -9 -9 -7 -7 -8 -7 -7 -7 -7 -7 -7 -7 -7 -7 -8 -7 -7 -7 -7 -6 -7 -7 -7 -8 -8 -8 -8 -8 -8
-10 -10 -10 -10 -9 -9 -9 -9 -9 -8 -8 -8 -9 -8 -7 -8 -8 -8 -7 -7 -7 -8 -8 -7 -7 -7 -7 -7 -8 -8 -7 -7 -7 -7 -7 -7 -7 -7 -8 -8 -8 -8 -8 -8
-10 -10 -10 -10 -10 -9 -9 -9 -8 -8 -8 -8 -9 -8 -7 -8 -7 -7 -8 -8 -8 -8 -7 -7 -7 -7 -7 -7 -8 -8 -7 -7 -7 -7 -7 -7 -7 -8 -8 -8 -8 -8 -8 -8
-11 -11 -11 -10 -10 -9 -9 -8 -8 -9 -9 -8 -8 -8 -8 -8 -7 -7 -7 -7 -7 -8 -7 -7 -7 -7 -7 -7 -7 -7 -7 -7 -8 -8 -7 -8 -8 -8 -8 -8 -8 -8 -9 -9
-11 -11 -11 -10 -9 -9 -9 -9 -8 -9 -8 -8 -8 -7 -8 -8 -7 -7 -7 -7 -8 -7 -7 -7 -7 -7 -7 -7 -7 -7 -7 -8 -8 -8 -8 -8 -8 -8 -8 -8 -8 -9 -9 -9
-11 -11 -11 -10 -9 -9 -9 -9 -8 -7 -7 -7 -8 -8 -8 -8 -7 -7 -7 -7 -7 -8 -8 -8 -8 -7 -7 -7 -7 -7 -8 -8 -8 -8 -9 -9 -9 -9 -9 -9 -9 -9 -9 -9
-11 -11 -11 -10 -9 -9 -9 -9 -8 -7 -8 -9 -8 -8 -8 -7 -7 -7 -7 -7 -8 -8 -8 -7 -7 -7 -7 -7 -7 -7 -8 -8 -8 -9 -9 -9 -10 -10 -10 -9 -9 -9 -9 -9
-11 -11 -10 -9 -9 -9 -8 -8 -8 -7 -9 -9 -9 -8 -8 -8 -7 -7 -7 -8 -8 -8 -7 -7 -7 -7 -8 -7 -7 -8 -8 -8 -9 -9 -9 -10 -10 -10 -10 -10 -9 -9 -9 -10
-11 -10 -10 -10 -10 -8 -8 -8 -8 -8 -9 -9 -9 -8 -8 -8 -8 -8 -9 -8 -8 -7 -7 -7 -7 -8 -8 -7 -7 -8 -8 -8 -9 -9 -9 -9 -10 -10 -10 -10 -10 -10 -10 -10

GFSNW_700_temp_135.txt.gz
Temp
-4 -4 -3 -3 -2 -4 -4 -4 -5 -3 -5 -7 -7 -7 -3 -5 -5 -4 -4 -3 -3 -2 -2 -2 -2 -2 -2 -1 -1 -1 -2 -2 -3 -1 0 0 -0 -1 -1 -1 -2 -1 -2 -4
-5 -4 -3 -2 -2 -3 -3 -4 -5 -6 -6 -7 -7 -6 -6 -6 -5 -4 -4 -4 -3 -3 -2 -2 -2 -2 -2 -3 -2 -2 -2 -3 -3 -1 -1 -1 -1 -2 -2 -2 -2 -3 -3 -4
-5 -4 -3 -3 -2 -3 -3 -5 -5 -6 -6 -5 -6 -6 -7 -6 -6 -5 -4 -3 -3 -3 -2 -2 -2 -3 -3 -3 -3 -2 -3 -3 -3 -3 -3 -2 -2 -2 -2 -2 -4 -3 -2 -4
-5 -4 -4 -4 -6 -5 -4 -4 -5 -5 -7 -6 -6 -6 -7 -6 -6 -6 -4 -4 -3 -3 -3 -3 -3 -3 -4 -4 -4 -4 -4 -4 -3 -4 -4 -4 -4 -3 -2 -3 -4 -5 -4 -4
-5 -5 -5 -5 -6 -5 -5 -6 -7 -6 -5 -7 -6 -7 -6 -6 -6 -5 -5 -4 -4 -3 -3 -3 -3 -5 -5 -3 -3 -3 -4 -4 -4 -4 -4 -4 -3 -4 -4 -4 -6 -5 -5 -5
-6 -6 -6 -8 -7 -5 -7 -7 -7 -7 -6 -7 -6 -6 -5 -5 -5 -5 -4 -4 -4 -4 -3 -4 -3 -3 -3 -3 -4 -4 -5 -4 -4 -4 -3 -4 -5 -2 -3 -5 -6 -6 -6 -5
-7 -7 -6 -8 -7 -7 -7 -6 -6 -7 -6 -6 -5 -6 -6 -5 -5 -5 -5 -6 -5 -5 -4 -4 -5 -4 -5 -4 -4 -4 -4 -4 -4 -4 -4 -5 -3 -3 -4 -6 -5 -5 -5 -5
-8 -7 -7 -8 -8 -7 -7 -7 -6 -6 -6 -5 -7 -7 -5 -6 -5 -6 -6 -6 -6 -6 -5 -5 -6 -5 -5 -5 -4 -4 -4 -4 -4 -4 -5 -4 -3 -3 -3 -5 -5 -4 -4 -5
-8 -8 -8 -8 -8 -8 -7 -7 -7 -6 -6 -6 -6 -6 -6 -5 -6 -7 -6 -6 -6 -6 -5 -5 -5 -5 -4 -4 -5 -4 -4 -4 -5 -4 -4 -5 -5 -3 -5 -6 -5 -3 -4 -5
-8 -8 -9 -9 -8 -8 -8 -7 -7 -7 -6 -6 -6 -6 -5 -6 -6 -6 -7 -6 -6 -7 -5 -4 -4 -3 -3 -3 -4 -4 -4 -4 -4 -4 -4 -6 -5 -5 -7 -7 -5 -4 -5 -5
-9 -10 -10 -9 -8 -8 -8 -7 -7 -7 -7 -6 -6 -6 -6 -6 -7 -6 -6 -7 -7 -6 -5 -4 -3 -3 -2 -3 -4 -4 -4 -4 -4 -4 -4 -5 -6 -5 -6 -5 -6 -5 -5 -5
-10 -10 -9 -9 -9 -8 -8 -7 -7 -7 -7 -7 -7 -7 -7 -7 -7 -7 -7 -6 -6 -5 -5 -4 -3 -3 -3 -3 -4 -4 -4 -4 -4 -4 -3 -4 -4 -5 -5 -5 -6 -6 -5 -6
-10 -9 -9 -9 -8 -7 -7 -7 -7 -7 -7 -7 -7 -7 -7 -7 -7 -7 -6 -7 -5 -5 -4 -4 -4 -4 -3 -3 -3 -3 -4 -4 -4 -4 -4 -4 -4 -5 -5 -5 -6 -6 -6 -7
-9 -9 -9 -9 -9 -9 -8 -8 -7 -7 -6 -7 -7 -7 -7 -7 -7 -6 -6 -5 -5 -5 -5 -4 -4 -4 -4 -4 -4 -4 -4 -4 -4 -4 -4 -4 -4 -4 -5 -5 -6 -7 -7 -8
-9 -9 -9 -9 -9 -8 -8 -8 -8 -8 -7 -7 -8 -8 -7 -7 -7 -7 -6 -6 -6 -6 -6 -5 -5 -5 -5 -4 -5 -5 -5 -5 -5 -5 -5 -4 -5 -5 -5 -6 -7 -8 -7 -8
-9 -10 -10 -10 -9 -9 -9 -8 -8 -8 -7 -7 -8 -8 -7 -7 -7 -6 -6 -6 -6 -6 -6 -5 -5 -5 -5 -5 -5 -6 -6 -5 -5 -5 -5 -5 -5 -5 -6 -7 -7 -8 -8 -8
-10 -10 -10 -10 -9 -9 -8 -8 -8 -7 -8 -7 -8 -9 -8 -8 -7 -7 -6 -6 -7 -7 -7 -7 -6 -6 -6 -6 -6 -6 -6 -6 -6 -6 -6 -6 -5 -6 -6 -7 -7 -8 -8 -8
-10 -10 -10 -10 -9 -9 -8 -8 -8 -8 -8 -7 -8 -9 -9 -9 -8 -8 -7 -7 -7 -7 -7 -7 -7 -6 -6 -6 -6 -6 -6 -6 -6 -6 -6 -6 -6 -6 -7 -7 -8 -8 -8 -8
-11 -10 -10 -10 -9 -9 -9 -9 -8 -8 -7 -8 -8 -9 -9 -9 -9 -8 -8 -8 -7 -7 -8 -7 -7 -7 -7 -7 -7 -6 -6 -6 -7 -7 -6 -6 -6 -6 -7 -8 -8 -8 -8 -8
-11 -10 -10 -10 -10 -9 -9 -9 -9 -8 -8 -7 -8 -8 -8 -8 -8 -8 -7 -7 -7 -7 -7 -7 -7 -7 -7 -7 -7 -6 -6 -6 -7 -7 -7 -7 -7 -7 -7 -8 -8 -8 -9 -9
-11 -11 -11 -10 -10 -9 -9 -9 -8 -8 -8 -8 -8 -8 -7 -8 -7 -7 -7 -7 -7 -7 -7 -7 -7 -7 -7 -7 -7 -6 -7 -7 -7 -7 -7 -7 -7 -7 -8 -8 -8 -8 -9 -9
-11 -10 -10 -10 -10 -9 -8 -8 -8 -8 -8 -8 -8 -8 -8 -7 -7 -7 -7 -7 -7 -7 -7 -7 -8 -7 -7 -7 -7 -7 -7 -7 -7 -7 -8 -8 -8 -8 -8 -8 -9 -9 -9 -9
-11 -10 -11 -10 -10 -9 -8 -8 -8 -8 -8 -7 -7 -8 -8 -7 -7 -7 -6 -7 -7 -7 -7 -7 -7 -7 -7 -7 -7 -7 -7 -8 -8 -8 -8 -8 -8 -9 -9 -9 -9 -9 -9 -9
-11 -11 -11 -10 -9 -9 -9 -8 -8 -7 -7 -7 -8 -8 -8 -7 -7 -7 -6 -7 -7 -7 -7 -8 -7 -8 -7 -7 -7 -7 -7 -8 -8 -8 -9 -9 -9 -9 -9 -9 -9 -9 -9 -9
-11 -11 -10 -10 -9 -9 -9 -9 -8 -8 -8 -9 -9 -8 -8 -7 -7 -7 -7 -7 -7 -8 -8 -7 -7 -7 -7 -7 -7 -7 -7 -8 -8 -9 -9 -9 -9 -10 -10 -10 -10 -10 -9 -10
-11 -10 -10 -9 -9 -9 -8 -9 -8 -8 -9 -9 -9 -8 -8 -7 -7 -7 -7 -7 -8 -8 -8 -7 -8 -8 -8 -7 -7 -7 -7 -8 -8 -8 -9 -9 -9 -10 -10 -10 -10 -10 -10 -10
-11 -10 -10 -9 -8 -8 -8 -8 -8 -9 -9 -9 -9 -8 -8 -8 -8 -8 -8 -8 -7 -8 -8 -8 -8 -8 -8 -7 -7 -7 -8 -8 -8 -8 -9 -9 -9 -10 -10 -10 -10 -10 -10 -10